SCP
0 0 0 0 0 0 0 0 0 0 0 0 0 0 0 0 0 0 0 0 0 0 0 0 0 0 0 0 0 0 0 0 0 0 0 0 0 0 0 0 0 0 0
0 0 0 0 0 0 0 0 0 0 0 0 0 0 0 0 0 0 0 0 0 0 0 0 0 0 0 0 0 0 0 0 0 0 0 0 0 0 0 0 0 0 0
0 0 0 0 0 0 0 0 0 0 0 0 0 0 0 0 0 0 0 0 0 0 0 0 0 0 0 0 0 0 0 0 0 0 0 0 0 0 0 0 0 0 0
0 0 0 0 0 0 0 0 0 0 0 0 0 0 0 0 0 0 0 0 0 0 0 0 0 0 0 0 0 0 0 0 0 0 0 0 0 0 0 0 0 0 0
0 0 0 0 0 0 0 0 0 0 0 0 0 0 0 0 0 0 0 0 0 0 0 0 0 0 0 0 0 0 0 0 0 0 0 0 0 0 0 0 0 0 0
0 0 0 0 0 0 0 0 0 0 0 0 0 0 0 0 0 0 0 0 0 0 0 0 0 0 0 0 0 0 0 0 0 0 0 0 0 0 0 0 0 0 0
0 0 0 0 0 0 0 0 0 0 0 0 0 0 0 0 0 0 0 0 0 0 0 0 0 0 0 0 0 0 0 0 0 0 0 0 0 0 0 0 0 0 0
0 0 0 0 0 0 0 0 0 0 0 0 0 0 0 0 0 0 0 0 0 0 0 0 0 0 0 0 0 0 0 0 0 0 0 0 0 0 0 0 0 0 0
0 0 0 0 0 0 0 0 0 0 0 0 0 0 0 0 0 0 0 0 0 0 0 0 0 0 0 0 0 0 0 0 0 0 0 0 0 0 0 0 0 0 0
0 0 0 0 0 0 0 0 0 0 0 0 0 0 0 0 0 0 0 0 0 0 0 0 0 0 0 0 0 0 0 0 0 0 0 0 0 0 0 0 0 0 0
-0 0 0 0 0 0 0 0 0 0 0 0 0 0 0 0 0 0 0 0 0 0 0 0 0 0 0 0 0 0 0 0 0 0 0 0 0 0 0 0 0 0 0
-0 -0 -0 0 0 0 0 0 0 0 0 0 0 0 0 0 0 0 0 0 0 0 0 0 0 0 0 0 0 0 0 0 0 0 0 0 0 0 0 0 0 0 0
-0 -0 -0 -0 -0 -0 0 0 0 -0 0 0 0 0 0 0 0 0 0 0 0 0 0 0 0 0 0 0 0 0 0 0 0 0 0 0 0 0 0 0 0 0 0
-0 -0 -0 -0 -0 -0 -0 -0 -0 -0 -0 0 0 0 0 0 0 0 0 0 0 0 0 0 0 0 0 0 0 0 0 0 0 0 0 0 0 0 0 0 0 0 0
-0 -0 -0 -0 -0 -0 -0 -0 -0 -0 -0 0 0 0 0 0 0 0 0 0 0 0 0 0 0 0 0 0 0 0 0 0 0 0 0 0 0 0 0 0 0 0 0
-0 -0 -0 -0 -0 -0 -0 -0 -0 -0 -0 0 0 0 0 0 0 0 0 0 0 0 0 0 0 0 0 0 0 0 0 0 0 0 0 0 0 0 0 0 0 0 0
-0 -0 -0 -0 -0 -0 -0 -0 -0 -0 -0 0 0 0 0 0 0 0 0 0 0 0 0 0 0 0 0 0 0 0 0 0 0 0 0 0 0 0 0 0 0 0 0
0 0 -0 -0 -0 -0 -0 -0 -0 -0 -0 -0 -0 0 0 0 0 0 0 0 0 0 0 0 0 0 0 0 0 0 0 0 0 0 0 0 0 0 0 0 0 0 0
0 0 0 0 -0 -0 -0 -0 -0 0 0 0 -0 -0 -0 0 0 0 0 0 0 0 0 0 0 0 0 0 0 0 0 0 0 0 0 0 0 0 0 0 0 0 0
0 0 0 0 0 0 0 -0 -0 -0 0 0 0 0 -0 -0 -0 0 0 0 0 0 0 0 0 0 0 0 0 0 0 0 0 0 0 0 0 0 0 0 0 0 0
0 0 0 0 0 0 0 0 0 0 0 0 0 0 0 0 0 0 0 0 0 0 0 0 0 0 0 0 0 0 0 0 0 0 0 0 0 0 0 0 0 0 0
0 0 0 0 0 0 0 0 0 0 0 0 0 0 0 0 0 0 0 0 0 0 0 0 0 0 0 0 0 0 0 0 0 0 0 0 0 0 0 0 0 0 0
0 0 0 0 0 0 0 0 0 0 0 0 0 0 0 0 0 0 0 0 0 0 0 0 0 0 0 0 0 0 0 0 0 0 0 0 0 0 0 0 0 0 0
0 0 0 0 0 0 0 0 0 0 0 0 0 0 0 0 0 0 0 0 0 0 0 0 0 0 0 0 0 0 0 0 0 0 0 0 0 0 0 0 0 0 0
0 0 0 0 0 0 0 0 0 0 0 0 0 0 0 0 0 0 0 0 0 0 0 0 0 0 0 0 0 0 0 0 0 0 0 0 0 0 0 0 0 0 0
0 0 0 0 0 0 0 0 0 0 0 0 0 0 0 0 0 0 0 0 0 0 0 0 0 0 0 0 0 0 0 0 0 0 0 0 0 0 0 0 0 0 0
Wind_Speed_500mb
38 20 3 17 28 36 41 47 50 53 55 55 53 56 62 71 84 91 91 91 92 90 86 82 82 77 74 71 66 60 55 50 45 39 35 33 33 33 33 31 33 36 40
42 34 21 5 11 25 33 38 42 45 44 47 49 52 55 60 69 79 90 92 92 93 88 85 83 81 78 73 69 63 56 51 47 43 38 39 35 33 32 30 32 36 40
43 36 32 26 13 3 16 27 35 37 41 45 48 53 54 56 60 67 76 87 91 90 90 88 87 83 82 79 72 65 60 53 49 45 40 38 35 33 32 32 32 34 38
58 46 39 35 29 22 9 10 23 33 37 41 46 48 49 53 56 58 64 73 82 87 89 89 88 85 85 79 74 68 62 57 52 48 42 38 37 35 34 34 32 34 36
77 71 61 46 35 27 21 11 4 17 33 39 41 44 48 51 52 55 58 62 71 81 86 86 86 84 81 76 73 71 65 60 55 51 45 42 39 34 34 34 36 34 38
73 78 76 72 56 41 32 25 15 5 12 25 34 36 37 41 44 47 50 56 61 69 80 85 84 83 80 75 73 68 61 56 54 49 46 43 35 34 33 32 34 37 41
59 65 70 70 73 69 56 40 29 22 12 7 14 24 30 32 37 40 43 47 51 57 66 77 83 83 80 77 74 69 62 58 55 49 47 40 35 34 35 32 31 34 38
64 64 62 63 64 62 63 64 58 43 30 20 14 10 17 25 32 34 36 38 38 42 50 59 72 79 79 78 76 72 68 64 59 56 48 40 42 39 36 32 32 35 37
53 55 57 58 59 61 63 62 60 58 49 39 25 15 11 13 23 29 35 34 35 35 37 45 55 67 72 75 75 74 71 66 62 54 50 47 47 42 36 34 32 34 36
52 54 53 50 45 48 52 57 59 53 49 45 37 28 22 13 11 14 22 27 29 31 35 40 46 55 63 69 71 72 72 67 64 58 55 53 49 44 37 35 34 32 29
45 46 46 45 47 45 44 41 42 46 51 47 41 37 28 23 12 7 5 15 24 28 31 36 40 48 58 63 65 68 67 62 59 55 53 53 51 45 41 35 34 31 27
53 51 51 51 47 47 44 41 40 39 36 42 47 42 36 30 24 18 6 11 15 25 30 32 34 40 48 53 60 61 63 62 59 57 59 59 56 48 41 37 36 31 28
62 66 67 61 56 51 47 46 44 42 42 39 35 39 42 44 32 25 13 7 5 11 27 31 32 37 41 47 51 55 65 66 65 64 68 66 54 44 44 42 37 31 30
68 67 67 71 71 63 58 51 47 45 45 43 42 39 31 32 34 37 31 16 7 5 6 20 31 35 40 44 49 57 65 67 69 69 69 60 52 54 50 45 39 35 31
76 76 74 72 72 76 70 63 58 50 45 47 44 45 46 37 31 31 34 36 26 20 18 14 17 29 38 45 51 58 66 68 72 71 71 66 59 56 52 48 44 40 34
77 79 76 73 71 69 72 78 66 59 54 47 46 47 47 46 44 38 35 30 32 30 19 18 20 20 32 40 47 53 63 69 73 73 72 67 63 61 55 54 50 43 35
74 74 74 72 70 69 66 68 81 76 66 58 53 51 51 50 50 49 48 41 35 32 32 29 23 27 26 32 41 46 53 59 63 70 72 70 67 63 61 59 52 47 40
63 64 65 67 66 62 60 60 59 67 81 79 64 60 56 52 52 52 54 54 46 36 34 32 33 30 30 31 31 38 45 49 53 58 65 71 72 69 67 65 59 54 44
53 52 51 53 54 55 52 52 54 55 59 68 72 67 56 52 53 53 52 54 52 49 42 41 36 35 34 30 30 31 37 44 49 55 60 66 69 71 69 66 62 55 48
44 45 45 46 46 48 50 53 52 52 55 57 60 62 60 58 56 53 52 54 54 56 54 51 50 46 40 38 31 30 35 41 44 50 56 62 64 66 70 69 67 61 55
45 46 47 49 50 49 50 49 51 53 54 54 53 50 51 53 60 62 59 53 57 59 57 59 59 58 53 43 41 36 36 41 46 48 52 55 60 64 66 67 66 63 57
45 46 47 49 50 51 53 54 55 55 55 57 55 51 46 52 57 59 59 58 58 60 60 63 66 66 62 57 47 45 41 43 46 47 51 52 53 57 63 69 70 68 61
47 49 51 53 53 54 55 56 58 58 59 59 57 55 53 54 54 57 57 55 56 58 60 64 69 71 69 67 62 53 49 48 47 44 47 52 53 54 62 67 72 72 68
49 51 53 56 57 59 61 62 63 64 65 64 64 62 58 55 57 59 57 55 55 58 60 62 68 71 73 73 74 72 56 48 51 46 43 48 52 54 57 67 71 73 70
45 47 50 53 56 59 60 61 61 61 62 63 63 63 62 61 60 57 57 58 58 58 60 62 65 71 73 75 79 80 76 58 57 57 48 47 51 52 58 65 71 75 76
47 49 53 56 58 60 61 62 63 64 65 64 65 63 62 62 60 59 59 59 60 62 60 61 64 65 69 73 78 84 87 81 65 64 59 52 54 56 58 63 69 77 80
Wind_Direction_500mb
34 42 167 217 220 227 235 248 255 255 255 253 253 253 250 245 242 238 237 236 235 234 234 233 232 232 233 234 233 233 234 234 235 229 225 229 231 245 259 273 290 303 306
31 37 45 57 214 223 228 232 237 249 260 260 259 256 254 251 247 242 239 238 236 235 234 232 231 230 231 232 233 233 233 234 234 235 234 237 245 252 263 278 292 300 306
27 35 44 50 54 234 233 236 239 240 248 255 261 257 255 254 252 248 244 242 240 238 235 233 232 230 231 231 230 230 231 231 233 235 235 240 246 255 266 278 287 297 305
36 34 37 41 41 42 27 257 244 242 242 247 254 259 260 258 256 253 250 246 243 239 237 234 233 232 232 231 230 229 229 230 232 235 237 241 247 255 266 276 284 295 303
42 43 41 35 34 37 38 29 300 245 242 243 246 253 256 256 256 255 253 250 246 241 238 235 234 233 234 234 233 231 228 229 232 235 238 242 246 253 264 280 292 303 310
40 41 43 43 39 33 29 30 24 348 254 246 244 246 251 258 260 259 256 253 250 244 239 236 234 233 233 232 232 232 236 237 238 241 244 247 251 256 265 277 295 308 320
37 39 37 38 40 40 38 34 27 24 15 312 262 252 249 249 252 258 260 257 253 249 244 237 235 233 231 230 229 229 229 232 234 241 246 250 254 257 264 278 293 305 312
24 28 30 32 32 33 37 39 39 32 20 12 1 304 266 254 251 250 251 257 255 253 248 243 238 236 233 231 229 227 227 229 233 239 244 246 249 254 263 275 288 299 309
24 23 22 20 20 23 24 27 31 35 35 29 9 346 313 293 264 255 252 250 251 246 243 241 238 236 234 233 231 229 228 229 233 235 238 241 245 254 259 271 282 294 304
7 9 9 10 15 19 18 17 14 20 27 30 32 21 0 329 288 274 261 253 250 249 243 239 236 231 231 232 231 231 231 230 233 234 235 241 248 252 256 263 274 286 300
349 352 352 352 360 6 9 8 7 8 5 10 25 33 38 22 354 263 259 250 242 243 243 241 236 229 227 227 228 229 231 233 234 234 235 239 243 246 251 257 268 279 289
333 335 336 343 347 346 348 351 355 358 358 357 357 4 23 27 31 28 343 234 252 252 246 237 231 229 229 227 227 224 225 226 229 228 232 235 239 242 246 251 261 271 282
323 326 328 330 330 332 334 336 338 341 344 348 347 347 352 355 11 16 19 11 259 277 259 249 237 229 226 223 222 220 222 221 224 224 229 234 237 242 243 245 254 263 272
313 314 316 318 319 320 321 324 324 326 327 330 331 331 330 334 338 342 356 4 351 330 304 270 252 238 231 228 221 219 220 221 225 227 232 235 232 233 237 241 247 253 262
307 308 308 307 308 311 312 313 314 314 314 313 315 314 316 315 315 314 323 330 340 339 323 302 276 243 238 232 225 224 226 223 224 225 229 231 229 231 232 236 240 244 251
302 303 303 303 303 302 302 304 302 302 302 299 297 296 295 297 298 294 290 288 302 317 314 318 297 275 244 240 239 230 231 228 228 228 230 229 228 229 227 230 234 240 245
299 301 303 305 305 305 302 299 299 298 298 294 292 287 284 285 286 286 284 277 272 283 298 306 301 290 269 249 241 243 243 239 234 232 232 231 230 228 226 228 231 236 236
298 299 301 303 305 306 305 302 297 294 296 297 291 288 285 282 277 274 274 275 271 261 257 266 285 289 287 269 251 242 243 244 243 238 233 231 229 229 225 224 227 231 232
303 304 303 302 304 306 305 302 300 295 290 290 293 293 292 284 277 273 268 269 269 261 250 244 244 253 268 279 267 254 244 243 241 242 238 234 230 228 225 225 227 228 229
306 306 307 308 307 306 306 306 306 303 300 297 293 296 298 292 284 273 265 263 260 258 254 246 240 239 234 247 263 262 255 246 241 239 239 239 234 229 226 225 225 224 225
308 308 308 307 307 306 305 304 303 302 302 301 301 300 300 296 287 282 277 265 261 258 252 249 243 238 234 233 237 250 252 254 248 242 241 241 237 231 227 225 224 223 223
310 312 311 310 310 308 307 305 305 303 302 302 302 299 293 286 285 284 280 275 268 262 256 251 246 240 232 228 227 231 245 253 250 248 242 240 240 234 228 224 220 219 218
313 313 312 310 309 308 306 306 305 304 303 302 300 298 295 290 286 284 282 277 273 266 259 254 249 245 237 228 224 222 229 239 252 250 248 242 239 234 230 226 219 216 214
314 313 311 309 308 305 304 304 302 301 300 300 299 298 297 294 290 288 285 283 276 271 264 255 251 246 241 233 224 221 220 224 231 246 247 247 242 236 230 225 220 216 215
317 314 313 313 310 308 305 303 301 300 299 297 296 295 293 290 289 287 285 282 278 272 267 263 254 250 243 236 230 223 219 219 223 225 233 243 244 238 232 227 220 213 211
318 318 318 318 317 315 311 308 305 303 301 300 298 295 293 290 288 284 281 278 274 273 269 264 260 255 248 240 232 226 220 216 215 221 223 231 241 236 231 229 223 215 209
Wind_Speed_850mb
38 20 3 17 28 36 41 47 50 53 55 55 53 56 62 71 84 91 91 91 92 90 86 82 82 77 74 71 66 60 55 50 45 39 35 33 33 33 33 31 33 36 40
42 34 21 5 11 25 33 38 42 45 44 47 49 52 55 60 69 79 90 92 92 93 88 85 83 81 78 73 69 63 56 51 47 43 38 39 35 33 32 30 32 36 40
43 36 32 26 13 3 16 27 35 37 41 45 48 53 54 56 60 67 76 87 91 90 90 88 87 83 82 79 72 65 60 53 49 45 40 38 35 33 32 32 32 34 38
58 46 39 35 29 22 9 10 23 33 37 41 46 48 49 53 56 58 64 73 82 87 89 89 88 85 85 79 74 68 62 57 52 48 42 38 37 35 34 34 32 34 36
77 71 61 46 35 27 21 11 4 17 33 39 41 44 48 51 52 55 58 62 71 81 86 86 86 84 81 76 73 71 65 60 55 51 45 42 39 34 34 34 36 34 38
73 78 76 72 56 41 32 25 15 5 12 25 34 36 37 41 44 47 50 56 61 69 80 85 84 83 80 75 73 68 61 56 54 49 46 43 35 34 33 32 34 37 41
59 65 70 70 73 69 56 40 29 22 12 7 14 24 30 32 37 40 43 47 51 57 66 77 83 83 80 77 74 69 62 58 55 49 47 40 35 34 35 32 31 34 38
64 64 62 63 64 62 63 64 58 43 30 20 14 10 17 25 32 34 36 38 38 42 50 59 72 79 79 78 76 72 68 64 59 56 48 40 42 39 36 32 32 35 37
53 55 57 58 59 61 63 62 60 58 49 39 25 15 11 13 23 29 35 34 35 35 37 45 55 67 72 75 75 74 71 66 62 54 50 47 47 42 36 34 32 34 36
52 54 53 50 45 48 52 57 59 53 49 45 37 28 22 13 11 14 22 27 29 31 35 40 46 55 63 69 71 72 72 67 64 58 55 53 49 44 37 35 34 32 29
45 46 46 45 47 45 44 41 42 46 51 47 41 37 28 23 12 7 5 15 24 28 31 36 40 48 58 63 65 68 67 62 59 55 53 53 51 45 41 35 34 31 27
53 51 51 51 47 47 44 41 40 39 36 42 47 42 36 30 24 18 6 11 15 25 30 32 34 40 48 53 60 61 63 62 59 57 59 59 56 48 41 37 36 31 28
62 66 67 61 56 51 47 46 44 42 42 39 35 39 42 44 32 25 13 7 5 11 27 31 32 37 41 47 51 55 65 66 65 64 68 66 54 44 44 42 37 31 30
68 67 67 71 71 63 58 51 47 45 45 43 42 39 31 32 34 37 31 16 7 5 6 20 31 35 40 44 49 57 65 67 69 69 69 60 52 54 50 45 39 35 31
76 76 74 72 72 76 70 63 58 50 45 47 44 45 46 37 31 31 34 36 26 20 18 14 17 29 38 45 51 58 66 68 72 71 71 66 59 56 52 48 44 40 34
77 79 76 73 71 69 72 78 66 59 54 47 46 47 47 46 44 38 35 30 32 30 19 18 20 20 32 40 47 53 63 69 73 73 72 67 63 61 55 54 50 43 35
74 74 74 72 70 69 66 68 81 76 66 58 53 51 51 50 50 49 48 41 35 32 32 29 23 27 26 32 41 46 53 59 63 70 72 70 67 63 61 59 52 47 40
63 64 65 67 66 62 60 60 59 67 81 79 64 60 56 52 52 52 54 54 46 36 34 32 33 30 30 31 31 38 45 49 53 58 65 71 72 69 67 65 59 54 44
53 52 51 53 54 55 52 52 54 55 59 68 72 67 56 52 53 53 52 54 52 49 42 41 36 35 34 30 30 31 37 44 49 55 60 66 69 71 69 66 62 55 48
44 45 45 46 46 48 50 53 52 52 55 57 60 62 60 58 56 53 52 54 54 56 54 51 50 46 40 38 31 30 35 41 44 50 56 62 64 66 70 69 67 61 55
45 46 47 49 50 49 50 49 51 53 54 54 53 50 51 53 60 62 59 53 57 59 57 59 59 58 53 43 41 36 36 41 46 48 52 55 60 64 66 67 66 63 57
45 46 47 49 50 51 53 54 55 55 55 57 55 51 46 52 57 59 59 58 58 60 60 63 66 66 62 57 47 45 41 43 46 47 51 52 53 57 63 69 70 68 61
47 49 51 53 53 54 55 56 58 58 59 59 57 55 53 54 54 57 57 55 56 58 60 64 69 71 69 67 62 53 49 48 47 44 47 52 53 54 62 67 72 72 68
49 51 53 56 57 59 61 62 63 64 65 64 64 62 58 55 57 59 57 55 55 58 60 62 68 71 73 73 74 72 56 48 51 46 43 48 52 54 57 67 71 73 70
45 47 50 53 56 59 60 61 61 61 62 63 63 63 62 61 60 57 57 58 58 58 60 62 65 71 73 75 79 80 76 58 57 57 48 47 51 52 58 65 71 75 76
47 49 53 56 58 60 61 62 63 64 65 64 65 63 62 62 60 59 59 59 60 62 60 61 64 65 69 73 78 84 87 81 65 64 59 52 54 56 58 63 69 77 80
Wind_Direction_850mb
34 42 167 217 220 227 235 248 255 255 255 253 253 253 250 245 242 238 237 236 235 234 234 233 232 232 233 234 233 233 234 234 235 229 225 229 231 245 259 273 290 303 306
31 37 45 57 214 223 228 232 237 249 260 260 259 256 254 251 247 242 239 238 236 235 234 232 231 230 231 232 233 233 233 234 234 235 234 237 245 252 263 278 292 300 306
27 35 44 50 54 234 233 236 239 240 248 255 261 257 255 254 252 248 244 242 240 238 235 233 232 230 231 231 230 230 231 231 233 235 235 240 246 255 266 278 287 297 305
36 34 37 41 41 42 27 257 244 242 242 247 254 259 260 258 256 253 250 246 243 239 237 234 233 232 232 231 230 229 229 230 232 235 237 241 247 255 266 276 284 295 303
42 43 41 35 34 37 38 29 300 245 242 243 246 253 256 256 256 255 253 250 246 241 238 235 234 233 234 234 233 231 228 229 232 235 238 242 246 253 264 280 292 303 310
40 41 43 43 39 33 29 30 24 348 254 246 244 246 251 258 260 259 256 253 250 244 239 236 234 233 233 232 232 232 236 237 238 241 244 247 251 256 265 277 295 308 320
37 39 37 38 40 40 38 34 27 24 15 312 262 252 249 249 252 258 260 257 253 249 244 237 235 233 231 230 229 229 229 232 234 241 246 250 254 257 264 278 293 305 312
24 28 30 32 32 33 37 39 39 32 20 12 1 304 266 254 251 250 251 257 255 253 248 243 238 236 233 231 229 227 227 229 233 239 244 246 249 254 263 275 288 299 309
24 23 22 20 20 23 24 27 31 35 35 29 9 346 313 293 264 255 252 250 251 246 243 241 238 236 234 233 231 229 228 229 233 235 238 241 245 254 259 271 282 294 304
7 9 9 10 15 19 18 17 14 20 27 30 32 21 0 329 288 274 261 253 250 249 243 239 236 231 231 232 231 231 231 230 233 234 235 241 248 252 256 263 274 286 300
349 352 352 352 360 6 9 8 7 8 5 10 25 33 38 22 354 263 259 250 242 243 243 241 236 229 227 227 228 229 231 233 234 234 235 239 243 246 251 257 268 279 289
333 335 336 343 347 346 348 351 355 358 358 357 357 4 23 27 31 28 343 234 252 252 246 237 231 229 229 227 227 224 225 226 229 228 232 235 239 242 246 251 261 271 282
323 326 328 330 330 332 334 336 338 341 344 348 347 347 352 355 11 16 19 11 259 277 259 249 237 229 226 223 222 220 222 221 224 224 229 234 237 242 243 245 254 263 272
313 314 316 318 319 320 321 324 324 326 327 330 331 331 330 334 338 342 356 4 351 330 304 270 252 238 231 228 221 219 220 221 225 227 232 235 232 233 237 241 247 253 262
307 308 308 307 308 311 312 313 314 314 314 313 315 314 316 315 315 314 323 330 340 339 323 302 276 243 238 232 225 224 226 223 224 225 229 231 229 231 232 236 240 244 251
302 303 303 303 303 302 302 304 302 302 302 299 297 296 295 297 298 294 290 288 302 317 314 318 297 275 244 240 239 230 231 228 228 228 230 229 228 229 227 230 234 240 245
299 301 303 305 305 305 302 299 299 298 298 294 292 287 284 285 286 286 284 277 272 283 298 306 301 290 269 249 241 243 243 239 234 232 232 231 230 228 226 228 231 236 236
298 299 301 303 305 306 305 302 297 294 296 297 291 288 285 282 277 274 274 275 271 261 257 266 285 289 287 269 251 242 243 244 243 238 233 231 229 229 225 224 227 231 232
303 304 303 302 304 306 305 302 300 295 290 290 293 293 292 284 277 273 268 269 269 261 250 244 244 253 268 279 267 254 244 243 241 242 238 234 230 228 225 225 227 228 229
306 306 307 308 307 306 306 306 306 303 300 297 293 296 298 292 284 273 265 263 260 258 254 246 240 239 234 247 263 262 255 246 241 239 239 239 234 229 226 225 225 224 225
308 308 308 307 307 306 305 304 303 302 302 301 301 300 300 296 287 282 277 265 261 258 252 249 243 238 234 233 237 250 252 254 248 242 241 241 237 231 227 225 224 223 223
310 312 311 310 310 308 307 305 305 303 302 302 302 299 293 286 285 284 280 275 268 262 256 251 246 240 232 228 227 231 245 253 250 248 242 240 240 234 228 224 220 219 218
313 313 312 310 309 308 306 306 305 304 303 302 300 298 295 290 286 284 282 277 273 266 259 254 249 245 237 228 224 222 229 239 252 250 248 242 239 234 230 226 219 216 214
314 313 311 309 308 305 304 304 302 301 300 300 299 298 297 294 290 288 285 283 276 271 264 255 251 246 241 233 224 221 220 224 231 246 247 247 242 236 230 225 220 216 215
317 314 313 313 310 308 305 303 301 300 299 297 296 295 293 290 289 287 285 282 278 272 267 263 254 250 243 236 230 223 219 219 223 225 233 243 244 238 232 227 220 213 211
318 318 318 318 317 315 311 308 305 303 301 300 298 295 293 290 288 284 281 278 274 273 269 264 260 255 248 240 232 226 220 216 215 221 223 231 241 236 231 229 223 215 209